FW3072 Weather Reports


time (UTC)temp
C
wind
direction
speed
KPH
gust
KPH
rain 1hr
cm
rain 24hr
cm
rain mn
cm
humidity
%
barometer
mb
20260503234202 11 246 4.8 19.3 0.00 0.00 0.00 62 1009.4
20260503233202 11 255 4.8 16.1 0.00 0.00 0.00 62 1009.5
20260503232202 11 270 8.0 25.7 0.00 0.00 0.00 64 1009.5
20260503231202 11 286 6.4 17.7 0.00 0.00 0.00 66 1009.7
20260503230202 11 288 8.0 14.5 0.00 0.00 0.00 66 1009.8
20260503225224 11 284 8.0 24.1 0.00 0.00 0.00 65 1009.8
20260503224202 11 268 6.4 17.7 0.00 0.00 0.00 65 1009.8
20260503223204 11 288 9.7 19.3 0.00 0.00 0.00 63 1009.9
20260503222223 11 270 11.3 25.7 0.00 0.00 0.00 64 1009.8
20260503221202 11 264 9.7 22.5 0.00 0.00 0.00 66 1009.9
20260503220201 11 282 11.3 29.0 0.00 0.00 0.00 65 1009.8
20260503215202 11 260 12.9 25.7 0.00 0.00 0.00 65 1009.7
20260503214202 11 264 8.0 33.8 0.00 0.00 0.00 65 1009.6
20260503213202 11 270 6.4 19.3 0.00 0.00 0.00 65 1009.5
20260503211203 11 271 9.7 29.0 0.00 0.00 0.00 65 1009.4
20260503210202 10 258 6.4 24.1 0.00 0.00 0.00 65 1009.5
20260503205201 10 244 6.4 24.1 0.00 0.00 0.00 64 1009.7
20260503203203 11 219 6.4 20.9 0.00 0.00 0.00 63 1009.8
20260503202202 11 270 8.0 33.8 0.00 0.00 0.00 63 1009.9
20260503201203 11 237 6.4 24.1 0.00 0.00 0.00 62 1010.0
20260503200204 11 263 9.7 20.9 0.00 0.00 0.00 61 1010.2
20260503195205 12 245 8.0 30.6 0.00 0.00 0.00 61 1010.4
20260503194202 12 218 6.4 20.9 0.00 0.00 0.00 60 1010.4
20260503193223 12 256 9.7 25.7 0.00 0.00 0.00 60 1010.6
20260503192203 11 269 9.7 24.1 0.00 0.00 0.00 60 1010.9
20260503191202 11 241 9.7 27.4 0.00 0.00 0.00 59 1011.0
20260503190203 11 281 14.5 30.6 0.00 0.00 0.00 58 1011.1
20260503185203 12 253 9.7 37.0 0.00 0.00 0.00 56 1011.2
20260503184202 12 277 11.3 30.6 0.00 0.00 0.00 56 1011.3
20260503183202 12 254 12.9 29.0 0.00 0.00 0.00 55 1011.5
20260503182205 12 238 8.0 22.5 0.00 0.00 0.00 52 1011.6
20260503181202 12 252 8.0 19.3 0.00 0.00 0.00 55 1011.6
20260503180202 11 227 8.0 25.7 0.00 0.00 0.00 54 1011.8
20260503175202 11 219 6.4 19.3 0.00 0.00 0.00 59 1011.9
20260503174224 10 242 6.4 19.3 0.00 0.00 0.00 60 1012.2
20260503173202 10 255 4.8 17.7 0.00 0.00 0.00 61 1012.3
20260503172203 11 228 6.4 16.1 0.00 0.00 0.00 64 1012.6
20260503171225 11 227 6.4 19.3 0.00 0.00 0.00 62 1012.6
20260503170202 10 222 6.4 25.7 0.00 0.00 0.00 60 1012.7
20260503160203 10 238 6.4 12.9 0.00 0.00 0.00 58 1013.4
20260503150202 9 242 8.0 19.3 0.00 0.00 0.00 64 1013.8
20260503140204 8 269 9.7 25.7 0.00 0.00 0.00 75 1014.0
20260503131202 7 265 6.4 19.3 0.00 0.00 0.00 80 1014.2
20260503130223 6 211 4.8 14.5 0.00 0.00 0.00 81 1014.2
20260503120202 3 235 1.6 4.8 0.00 0.00 0.00 89 1014.3
20260503110225 0 242 0.0 0.0 0.00 0.00 0.00 89 1014.4
20260503100204 -1 242 0.0 0.0 0.00 0.00 0.00 88 1014.3
20260503090202 -1 242 0.0 0.0 0.00 0.00 0.00 87 1014.6
20260503081201 0 242 0.0 0.0 0.00 0.00 0.00 86 1014.7
20260503080204 0 242 0.0 0.0 0.00 0.00 0.00 86 1014.7
20260503072203 0 242 0.0 0.0 0.00 0.00 0.00 85 1014.6
20260503071225 0 242 0.0 0.0 0.00 0.00 0.00 84 1014.6
20260503070226 0 242 0.0 0.0 0.00 0.00 0.00 84 1014.5
20260503060204 0 242 0.0 0.0 0.00 0.00 0.00 83 1014.9
20260503054202 1 242 0.0 0.0 0.00 0.00 0.00 83 1014.9
20260503053202 1 242 0.0 0.0 0.00 0.00 0.00 82 1014.9
20260503052203 1 242 0.0 0.0 0.00 0.00 0.00 82 1015.0
20260503051204 1 242 0.0 0.0 0.00 0.00 0.00 81 1015.1
20260503050202 1 242 0.0 0.0 0.00 0.00 0.00 81 1015.2
20260503045203 2 242 0.0 0.0 0.00 0.00 0.00 80 1015.1
20260503044202 2 242 0.0 0.0 0.00 0.00 0.00 80 1015.2
20260503043223 2 242 0.0 0.0 0.00 0.00 0.00 79 1015.3
20260503042202 2 242 0.0 0.0 0.00 0.00 0.00 79 1015.3
20260503041202 3 242 0.0 0.0 0.00 0.00 0.00 78 1015.4
20260503040224 3 242 0.0 0.0 0.00 0.00 0.00 78 1015.4
20260503035202 3 242 0.0 0.0 0.00 0.00 0.00 78 1015.4
20260503034202 4 242 0.0 0.0 0.00 0.00 0.00 78 1015.4
20260503033223 4 242 0.0 0.0 0.00 0.00 0.00 78 1015.4
20260503032203 4 242 0.0 0.0 0.00 0.00 0.00 77 1015.4
20260503031202 4 242 0.0 0.0 0.00 0.00 0.00 76 1015.4
20260503030202 4 242 0.0 0.0 0.00 0.00 0.00 75 1015.5
20260503025203 5 242 0.0 0.0 0.00 0.00 0.00 75 1015.6
20260503024202 5 242 0.0 0.0 0.00 0.00 0.00 74 1015.6
20260503023204 5 242 0.0 0.0 0.00 0.00 0.00 73 1015.6
20260503022202 5 242 0.0 0.0 0.00 0.00 0.00 74 1015.7
20260503021204 5 242 0.0 3.2 0.00 0.00 0.00 75 1015.8
20260503020202 5 241 0.0 1.6 0.00 0.00 0.00 74 1015.8
20260503015203 5 242 0.0 4.8 0.00 0.00 0.00 74 1015.8
20260503014202 5 241 1.6 4.8 0.00 0.00 0.00 74 1015.8
20260503013205 5 241 1.6 8.0 0.00 0.00 0.00 74 1015.8
20260503012245 5 288 3.2 11.3 0.00 0.00 0.00 74 1015.9
20260503011202 5 283 6.4 12.9 0.00 0.00 0.00 74 1015.8
20260503010202 5 291 3.2 11.3 0.00 0.00 0.00 73 1015.8
20260503005202 5 262 1.6 8.0 0.00 0.00 0.00 73 1015.7
20260503004224 5 284 3.2 12.9 0.00 0.00 0.00 73 1015.7
20260503003201 5 301 1.6 9.7 0.00 0.00 0.00 72 1015.5
20260503002223 5 265 1.6 6.4 0.00 0.00 0.00 72 1015.4
20260503001202 5 249 1.6 11.3 0.00 0.00 0.00 71 1015.4
20260503000204 5 295 1.6 11.3 0.00 0.00 0.00 71 1015.4
20260502235202 5 266 0.0 14.5 0.00 0.00 0.00 70 1015.4